Lid_Strength_Index
4 3 4 4 4 4 4 4 4 4 3 3 3 3 3 3 3 3 3 3 3 3 3 2 2 1 2 3 4 -0 -1 -0 -0 1 2 3 4 4 6 6 5 7 5 5 4 5 5
4 4 3 4 4 4 4 4 4 4 4 4 4 3 3 4 3 3 3 3 3 3 3 2 1 1 2 5 0 -0 -0 0 1 1 2 2 3 3 4 6 6 5 5 5 5 5 5
3 4 3 3 4 4 4 4 4 4 3 3 3 4 4 4 4 3 3 4 4 3 3 2 1 0 4 4 1 -0 -0 1 0 1 2 1 2 3 3 6 4 6 9 8 6 5 7
3 3 3 3 3 3 3 3 3 3 3 3 4 4 4 4 4 4 4 4 4 3 2 1 -0 1 4 2 1 1 1 2 2 0 1 1 1 3 4 4 5 8 9 13 8 6 6
3 4 3 3 3 3 3 3 3 3 3 4 4 4 4 4 4 4 4 4 3 2 1 -0 1 2 5 1 3 2 1 3 4 3 3 1 2 5 4 6 10 11 14 11 9 5 6
3 3 3 3 3 3 3 3 3 3 4 3 3 3 4 4 4 4 4 4 1 1 0 0 1 3 3 4 3 2 2 2 3 4 4 4 4 6 5 7 15 14 14 12 11 6 6
3 3 3 4 3 3 4 3 3 4 4 4 4 4 4 4 4 4 4 0 3 4 2 3 4 5 4 3 2 3 2 3 2 5 6 4 6 7 6 6 8 9 11 12 9 5 6
3 3 4 4 3 3 4 4 3 4 4 4 4 4 4 4 4 5 4 2 2 3 4 2 3 3 3 2 4 3 2 4 4 6 5 6 7 5 5 5 8 8 9 10 6 5 6
3 3 3 3 4 4 4 4 4 4 4 4 4 4 4 4 5 4 1 2 0 1 4 4 3 4 4 3 5 4 3 3 5 6 6 7 6 5 5 6 7 7 7 7 8 6 6
3 3 4 4 4 4 4 4 4 4 4 4 4 4 4 5 4 1 2 1 0 1 7 6 5 4 3 3 5 3 2 3 5 6 6 6 5 6 6 7 6 8 6 6 7 8 10
3 4 4 4 4 4 4 4 4 4 4 4 4 4 5 6 3 2 1 0 0 2 12 6 5 1 3 4 4 4 2 3 6 6 6 7 6 6 7 7 6 7 5 6 7 8 8
3 4 4 4 4 4 4 4 4 4 4 4 4 5 5 3 2 0 -0 -0 1 8 12 7 5 5 5 5 4 4 4 3 3 5 5 6 4 5 6 5 5 5 6 6 7 8 11
4 4 4 4 4 4 4 4 4 4 4 5 5 6 5 1 2 -0 -0 2 8 10 6 7 6 5 5 6 5 5 5 6 7 8 8 6 6 5 5 6 5 6 7 10 11 11 12
4 4 4 4 4 4 4 4 5 5 5 5 6 7 3 1 -1 -0 1 5 11 8 7 5 6 6 7 6 6 6 6 7 5 6 8 9 9 7 5 6 7 7 7 10 13 12 11
4 4 4 5 5 5 5 5 5 5 6 6 7 1 1 -0 -1 0 4 8 8 7 6 6 6 7 7 6 6 6 6 7 6 5 8 9 9 5 5 5 5 7 8 7 9 9 10
4 4 4 5 5 5 5 5 5 5 6 6 2 1 1 -0 -1 1 5 8 6 5 5 5 8 7 8 7 7 7 7 6 6 5 5 6 9 6 6 5 5 6 6 9 9 12 13
4 4 4 4 4 4 4 5 5 6 7 7 2 4 1 -0 0 3 8 6 6 4 4 6 6 7 7 7 7 7 7 6 5 5 5 6 7 7 6 7 7 7 8 7 8 9 12
3 4 4 4 4 4 4 5 5 6 7 6 2 5 1 -0 5 4 6 5 7 5 4 5 5 6 6 6 7 7 7 6 5 5 6 5 7 9 8 6 5 6 7 7 10 10 9
3 4 4 4 5 4 4 5 5 6 7 5 4 3 1 1 7 5 5 5 5 5 5 5 6 5 5 6 8 6 6 5 4 5 6 6 8 10 9 7 6 7 7 7 7 8 9
3 3 4 4 4 4 4 5 5 6 6 4 3 5 3 3 3 5 6 6 6 4 5 5 5 5 6 6 5 7 6 5 4 5 3 3 7 8 10 9 7 8 7 7 7 9 9
3 3 3 4 4 4 4 5 5 6 6 3 3 5 6 6 5 5 5 5 6 6 5 4 5 6 6 8 7 7 6 5 5 6 5 5 8 7 7 7 7 7 8 7 8 8 9
2 3 3 4 4 4 4 5 5 6 7 2 5 6 5 5 6 6 8 6 6 6 5 6 6 5 5 7 6 7 6 6 6 5 5 5 8 7 8 7 7 8 7 7 7 7 7
2 3 3 3 4 4 4 4 5 6 6 3 3 3 4 6 6 6 6 6 6 5 5 5 5 5 6 6 5 5 4 5 5 6 6 6 7 8 10 7 8 9 8 7 7 6 7
2 2 3 3 4 4 4 4 4 5 7 4 4 4 5 7 6 6 7 7 7 7 7 6 5 6 5 4 4 5 5 5 5 6 6 7 7 8 10 8 13 8 5 6 6 6 6
2 2 2 3 3 4 4 4 4 5 6 4 3 4 5 7 5 5 6 6 6 6 6 6 5 5 4 5 7 8 7 6 6 5 6 6 7 8 10 10 9 7 6 6 7 8 5
3 2 2 2 3 3 4 4 4 4 5 4 2 3 4 6 6 5 6 6 7 6 6 5 4 4 5 6 8 9 10 8 8 7 5 5 5 8 9 12 13 8 5 4 5 10 6
3 3 2 2 2 3 4 4 4 4 5 5 3 2 4 5 4 4 6 6 5 6 7 5 5 5 4 7 9 9 9 6 9 9 8 8 8 10 10 11 9 6 5 4 10 10 5
3 3 3 3 3 3 3 4 4 5 4 5 2 1 4 5 4 3 4 6 5 5 7 5 6 5 6 8 8 8 8 7 8 7 8 8 9 10 9 11 12 5 6 8 6 5 5
3 3 3 3 3 3 3 4 4 5 5 5 3 1 1 4 4 2 2 2 3 4 5 6 6 6 6 7 7 7 8 7 8 10 5 9 7 9 8 8 5 4 5 4 4 4 4